LIPXLIMJ

Guest
Details From LIPX - VILLAFRANCA
To LIMJ - Genova Sestri
Flight Number -
Tags generated
Created
Modified
Stats Distance 105 nm / 195 km
Max Altitude 12,700 ft / 3,871 m
Waypoints 3
Social Downloads 0
Likes 0
Share VATSIM

Download

Looking for another format? Having issues loading an existing format? Contact us
Advertisement - Login to hide

Notes

Basic altitude profile: - Ascent Rate: 2500ft/min - Ascent Speed: 250kts - Cruise Altitude: 250ft - Cruise Speed: 420kts - Descent Rate: 1500ft/min - Descent Speed: 250kts Options: - Use NATs: yes - Use PACOTS: yes - Use low airways: yes - Use high airways: yes

Route

LIPX MAXIM LIMJ

ID Type Via Altitude Latitude Longitude Leg Dist Tot Dist Heading (true) Name
O LIPX APT - 0 ft / 0 m 45.39694˚ 10.89042˚ - 0 nm - VILLAFRANCA
MAXIM FIX - 12,700 ft / 3,871 m 45.02389˚ 10.08056˚ 40 nm 40 nm 237° / 237° -
O LIMJ APT - 0 ft / 0 m 44.41196˚ 8.84187˚ 64 nm 105 nm 236° / 235° Genova Sestri

Altitude Profile

Advertisement - Login to hide

LIPX

Details ICAO LIPX (VRN)
Name VILLAFRANCA
Region Italy
Timezone Europe/Rome (UTC+1.0)
Stats Elevation 239 ft / 73 m (AMSL)
Location 45.396942° 10.890418°
Runways 1
Magnetic Variation 2.860° E

METAR

LIPX 132050Z VRB02KT 8000 R04/0550 MIFG BKN015 02/01 Q1014

Decode

TAF

Not found

Departure Runways

ID Width Length Bearing (true) Bearing (mag) Surface Threshold Offset Overrun Length
04 148 ft / 45 m 10,072 ft / 3,070 m 45.79° 42.93° Asphalt 189 ft / 58 m 815 ft / 248 m
22 148 ft / 45 m 10,072 ft / 3,070 m 225.81° 222.95° Asphalt 1,345 ft / 410 m 189 ft / 58 m

LIMJ

Details ICAO LIMJ (GOA)
Name Genova Sestri
Region Italy
Timezone Unknown (UTC+0.0)
Stats Elevation 13 ft / 4 m (AMSL)
Location 44.411957° 8.841866°
Runways 1
Magnetic Variation 2.387° E

METAR

LIMJ 132050Z 15011KT 9999 FEW035 12/05 Q1014

Decode

TAF

TAF LIMJ 131700Z 1318/1418 16007KT 9999 SCT030

Decode

Destination Runways

ID Width Length Bearing (true) Bearing (mag) Surface Threshold Offset Overrun Length
10 148 ft / 45 m 9,574 ft / 2,918 m 105.39° 103.00° Asphalt 0 ft / 0 m 0 ft / 0 m
28 148 ft / 45 m 9,574 ft / 2,918 m 285.41° 283.02° Asphalt 538 ft / 164 m 0 ft / 0 m

Approach Navaids

Runway Type Ident Frequency Range Bearing (true) Bearing (mag) Slope Elevation
28 Localiser GSE 109.30 MHz 18 nm / 33 km 287.30° 284.91° - 9 ft / 3 m (AMSL)
28 Glidescope GSE 109.30 MHz 10 nm / 19 km 287.30° 284.91° 3.17° 26 ft / 8 m (AMSL)
28 DME GSE 109.30 MHz 18 nm / 33 km - - - 26 ft / 8 m (AMSL)

Popular Alternatives